This demonstration page uses our WeatherBlox Daily Observations layout. Learn more.

Left ArrowRight Arrow

34.16533, -84.80231

Hourly Observations for March 15, 2017

Temp ( °F °C ) Dew Point ( °F °C ) Humidity (%) Winds ( mph kmh ) Pressure ( in mb ) Visibility ( mi km ) Precip ( " mm )
12:53 am 00:53 Clear 29 -1.7 21 -6.1 72 72 undefined N/A 30.19 1022 10 16 0.00 0.00
1:53 am 01:53 Clear 29 -1.7 21 -6.1 72 72 undefined N/A 30.19 1022 10 16 0.00 0.00
2:53 am 02:53 Clear 29 -1.7 21 -6.1 72 72 undefined N/A 30.20 1023 10 16 0.00 0.00
3:53 am 03:53 Clear 29 -1.7 19 -7.2 66 66 undefined N/A 30.20 1023 10 16 0.00 0.00
4:53 am 04:53 Mostly Cloudy 29 -1.7 18 -7.8 63 63 undefined N/A 30.21 1023 10 16 0.00 0.00
5:53 am 05:53 Cloudy 29 -1.7 19 -7.2 66 66 undefined N/A 30.22 1024 10 16 0.00 0.03
6:53 am 06:53 Mostly Cloudy 28 -2.2 18 -7.8 66 66 undefined N/A 30.25 1025 10 16 0.00 0.00
7:49 am 07:49 Cloudy 28 -2 19 -7 69 69 undefined N/A 30.30 1026 10 16 0.00 0.00
7:53 am 07:53 Cloudy 27 -2.8 18 -7.8 69 69 undefined N/A 30.29 1026 10 16 0.00 0.00
8:00 am 08:00 Mostly Cloudy 27 -2.8 17 -8.3 66 66 undefined N/A 30.30 1026 10 16 0.00 0.00
8:53 am 08:53 Cloudy 28 -2.2 15 -9.4 58 58 undefined N/A 30.30 1026 10 16 0.00 0.00
9:53 am 09:53 Mostly Cloudy 29 -1.7 15 -9.4 56 56 undefined N/A 30.32 1027 10 16 0.00 0.00
10:53 am 10:53 Partly Cloudy 32 0 16 -8.9 52 52 undefined N/A 30.35 1028 10 16 0.00 0.00
11:53 am 11:53 Sunny 34 1.1 13 -10.6 42 42 undefined N/A 30.36 1028 10 16 0.00 0.00
12:53 pm 12:53 Sunny 35 1.7 10 -12.2 35 35 undefined N/A 30.37 1028 10 16 0.00 0.00
1:53 pm 13:53 Sunny 38 3.3 8 -13.3 29 29 undefined N/A 30.35 1028 10 16 0.00 0.00
2:53 pm 14:53 Sunny 38 3.3 9 -12.8 30 30 undefined N/A 30.32 1027 10 16 0.00 0.00
3:53 pm 15:53 Sunny 40 4.4 8 -13.3 27 27 undefined N/A 30.30 1026 10 16 0.00 0.00
4:53 pm 16:53 Sunny 41 5 10 -12.2 28 28 undefined N/A 30.29 1026 10 16 0.00 0.00
5:53 pm 17:53 Sunny 41 5 8 -13.3 25 25 undefined N/A 30.28 1026 10 16 0.00 0.00
6:53 pm 18:53 Sunny 40 4.4 10 -12.2 29 29 undefined N/A 30.29 1026 10 16 0.00 0.00
7:53 pm 19:53 Clear 37 2.8 9 -12.8 31 31 undefined N/A 30.31 1027 10 16 0.00 0.00
8:53 pm 20:53 Clear 35 1.7 10 -12.2 35 35 undefined N/A 30.33 1027 10 16 0.00 0.00
9:53 pm 21:53 Clear 31 -0.6 12 -11.1 45 45 undefined N/A 30.35 1028 10 16 0.00 0.00
10:53 pm 22:53 Clear 30 -1.1 13 -10.6 49 49 undefined N/A 30.35 1028 10 16 0.00 0.00
11:53 pm 23:53 Clear 28 -2.2 14 -10 56 56 undefined N/A 30.37 1028 10 16 0.00 0.00

Powered by AerisWeather